This demonstration page uses our WeatherBlox Daily Observations layout. Learn more.

Left ArrowRight Arrow

36.17497, -115.13722

Hourly Observations for April 15, 2020

Temp ( °F °C ) Dew Point ( °F °C ) Humidity (%) Winds ( mph kmh ) Pressure ( in mb ) Visibility ( mi km ) Precip ( " mm )
12:53 am 00:53 Clear 56 13.3 16 -8.9 21 21 N N/A 30.16 1021 10 16 N/A
1:53 am 01:53 Clear 53 11.7 17 -8.3 24 24 W 3 6 30.14 1021 10 16 N/A
2:53 am 02:53 Clear 52 11.1 20 -6.7 28 28 N N/A 30.13 1020 10 16 N/A
3:53 am 03:53 Clear 52 11.1 20 -6.7 28 28 N N/A 30.12 1020 10 16 N/A
4:53 am 04:53 Clear 53 11.7 19 -7.2 26 26 WSW 3 6 30.12 1020 10 16 N/A
5:53 am 05:53 Clear 50 10 18 -7.8 28 28 ENE 3 6 30.13 1020 10 16 N/A
6:53 am 06:53 Sunny 53 11.7 18 -7.8 25 25 NW 8 13 30.13 1020 10 16 N/A
7:53 am 07:53 Sunny 56 13.3 17 -8.3 22 22 NW 6 9 30.14 1021 10 16 N/A
8:53 am 08:53 Sunny 63 17.2 20 -6.7 19 19 NE 3 6 30.12 1020 10 16 N/A
9:53 am 09:53 Sunny 64 17.8 17 -8.3 16 16 N N/A 30.11 1020 10 16 N/A
10:53 am 10:53 Sunny 67 19.4 14 -10 13 13 N N/A 30.10 1019 10 16 N/A
11:53 am 11:53 Sunny 70 21.1 15 -9.4 12 12 SE 3 6 30.07 1018 10 16 N/A
12:53 pm 12:53 Sunny 72 22.2 13 -10.6 10 10 undefined N/A 30.03 1017 10 16 N/A
1:53 pm 13:53 Sunny 74 23.3 15 -9.4 10 10 S 5 7 29.99 1016 10 16 N/A
2:53 pm 14:53 Sunny 77 25 16 -8.9 10 10 ESE 9 15 29.95 1014 10 16 N/A
3:53 pm 15:53 Sunny 79 26.1 14 -10 8 8 SSE 13 20 29.91 1013 10 16 N/A
4:53 pm 16:53 Sunny 79 26.1 17 -8.3 10 10 SSW 5 7 29.88 1012 10 16 N/A
5:53 pm 17:53 Sunny 78 25.6 17 -8.3 10 10 SW 9 15 29.87 1011 10 16 N/A
6:53 pm 18:53 Sunny 76 24.4 20 -6.7 12 12 SW 12 19 29.85 1011 10 16 N/A
7:53 pm 19:53 Clear 73 22.8 21 -6.1 14 14 SSW 12 19 29.84 1011 10 16 N/A
8:53 pm 20:53 Clear 72 22.2 21 -6.1 15 15 SSW 12 19 29.83 1010 10 16 N/A
9:53 pm 21:53 Clear 71 21.7 22 -5.6 16 16 WSW 9 15 29.84 1011 10 16 N/A
10:53 pm 22:53 Clear 65 18.3 24 -4.4 21 21 W 6 9 29.85 1011 10 16 N/A
11:53 pm 23:53 Clear 65 18.3 24 -4.4 21 21 NW 7 11 29.84 1011 10 16 N/A

Powered by AerisWeather